• en France
  • Liste des pays
  • À 7 jours
  • Température de l'eau
  • Carte satellitaire
  • Carte météo
  • Widgets météo
  • user-avatar
    Se connecter

    Météo par heure à Zaprudnyy

    Ce jour, 19 Juillet, Jeudi

    Heure Température Précipitation Vent Pression Humidité
    00:00 +19°C° 0,2 mm 4 m/s 736 mmHg 96%
    01:00 +19°C° 0,3 mm 4 m/s 736 mmHg 96%
    02:00 +19°C° 0,3 mm 4 m/s 737 mmHg 96%
    03:00 +20°C° 0 mm 3 m/s 737 mmHg 98%
    04:00 +20°C° 1,6 mm 3 m/s 737 mmHg 97%
    05:00 +20°C° 1,6 mm 4 m/s 737 mmHg 97%
    06:00 +20°C° 1,6 mm 4 m/s 737 mmHg 96%
    07:00 +20°C° 0,6 mm 4 m/s 737 mmHg 96%
    08:00 +20°C° 0,6 mm 4 m/s 738 mmHg 95%
    09:00 +20°C° 0,6 mm 4 m/s 738 mmHg 94%
    10:00 +21°C° 0,1 mm 4 m/s 738 mmHg 91%
    11:00 +22°C° 0,1 mm 4 m/s 738 mmHg 88%
    12:00 +23°C° 0,1 mm 4 m/s 738 mmHg 85%
    13:00 +25°C° 0,5 mm 4 m/s 738 mmHg 82%
    14:00 +25°C° 0,5 mm 5 m/s 738 mmHg 78%
    15:00 +26°C° 0,5 mm 5 m/s 738 mmHg 75%
    16:00 +26°C° 0,8 mm 4 m/s 738 mmHg 77%
    17:00 +25°C° 0,8 mm 4 m/s 738 mmHg 80%
    18:00 +25°C° 0,8 mm 3 m/s 739 mmHg 83%
    19:00 +24°C° 0,6 mm 3 m/s 739 mmHg 86%
    20:00 +22°C° 0,6 mm 3 m/s 739 mmHg 89%
    21:00 +21°C° 0,6 mm 3 m/s 739 mmHg 92%
    22:00 +21°C° 0,1 mm 3 m/s 739 mmHg 92%
    23:00 +21°C° 0,1 mm 3 m/s 739 mmHg 93%

    Demain, 20 Juillet, Vendredi

    Heure Température Précipitation Vent Pression Humidité
    00:00 +20°C° 0,1 mm 3 m/s 739 mmHg 93%
    01:00 +20°C° 0 mm 3 m/s 739 mmHg 93%
    02:00 +20°C° 0 mm 4 m/s 739 mmHg 94%
    03:00 +20°C° 0 mm 4 m/s 739 mmHg 94%
    04:00 +20°C° 0 mm 4 m/s 740 mmHg 93%
    05:00 +20°C° 0 mm 3 m/s 740 mmHg 93%
    06:00 +20°C° 0 mm 3 m/s 740 mmHg 92%
    07:00 +22°C° 0,1 mm 4 m/s 740 mmHg 87%
    08:00 +23°C° 0,1 mm 4 m/s 740 mmHg 83%
    09:00 +25°C° 0,1 mm 4 m/s 741 mmHg 78%
    10:00 +27°C° 0,5 mm 4 m/s 741 mmHg 73%
    11:00 +28°C° 0,5 mm 4 m/s 740 mmHg 68%
    12:00 +29°C° 0,5 mm 4 m/s 740 mmHg 64%
    13:00 +29°C° 0,3 mm 4 m/s 740 mmHg 62%
    14:00 +29°C° 0,3 mm 4 m/s 740 mmHg 61%
    15:00 +30°C° 0,3 mm 4 m/s 740 mmHg 60%
    16:00 +29°C° 0,5 mm 4 m/s 740 mmHg 65%
    17:00 +28°C° 0,5 mm 3 m/s 740 mmHg 71%
    18:00 +28°C° 0,5 mm 3 m/s 740 mmHg 76%
    19:00 +26°C° 0 mm 3 m/s 740 mmHg 81%
    20:00 +25°C° 0 mm 3 m/s 741 mmHg 86%
    21:00 +22°C° 0 mm 3 m/s 741 mmHg 91%
    22:00 +22°C° 0 mm 3 m/s 741 mmHg 92%
    23:00 +21°C° 0 mm 3 m/s 741 mmHg 94%

    Après-demain, 21 Juillet, Samedi

    Heure Température Précipitation Vent Pression Humidité
    00:00 +20°C° 0 mm 3 m/s 741 mmHg 95%
    01:00 +20°C° 0 mm 2 m/s 741 mmHg 95%
    02:00 +20°C° 0 mm 2 m/s 741 mmHg 96%
    03:00 +19°C° 0 mm 2 m/s 741 mmHg 96%
    04:00 +20°C° 0 mm 2 m/s 741 mmHg 94%
    05:00 +20°C° 0 mm 3 m/s 741 mmHg 93%
    06:00 +20°C° 0 mm 3 m/s 741 mmHg 91%
    07:00 +22°C° 0 mm 3 m/s 741 mmHg 85%
    08:00 +25°C° 0 mm 3 m/s 742 mmHg 80%
    09:00 +26°C° 0 mm 3 m/s 742 mmHg 74%
    10:00 +27°C° 0,4 mm 3 m/s 742 mmHg 70%
    11:00 +28°C° 0,4 mm 3 m/s 742 mmHg 67%
    12:00 +29°C° 0,4 mm 3 m/s 741 mmHg 64%
    13:00 +29°C° 0,3 mm 3 m/s 741 mmHg 62%
    14:00 +29°C° 0,3 mm 3 m/s 741 mmHg 61%
    15:00 +30°C° 0,3 mm 3 m/s 741 mmHg 59%
    16:00 +29°C° 0,5 mm 3 m/s 741 mmHg 64%
    17:00 +29°C° 0,5 mm 3 m/s 741 mmHg 70%
    18:00 +28°C° 0,5 mm 2 m/s 741 mmHg 75%
    19:00 +27°C° 0 mm 2 m/s 741 mmHg 79%
    20:00 +25°C° 0 mm 2 m/s 741 mmHg 84%
    21:00 +24°C° 0 mm 2 m/s 741 mmHg 88%
    22:00 +23°C° 0 mm 2 m/s 741 mmHg 89%
    23:00 +21°C° 0 mm 2 m/s 741 mmHg 91%

    22 Juillet, Dimanche

    Heure Température Précipitation Vent Pression Humidité
    00:00 +22°C° 0 mm 1 m/s 741 mmHg 92%
    01:00 +22°C° 0,1 mm 1 m/s 741 mmHg 92%
    02:00 +20°C° 0,1 mm 2 m/s 741 mmHg 93%
    03:00 +20°C° 0,1 mm 2 m/s 741 mmHg 94%
    04:00 +21°C° 0,1 mm 1 m/s 741 mmHg 93%
    05:00 +22°C° 0,1 mm 1 m/s 741 mmHg 92%
    06:00 +22°C° 0,1 mm 1 m/s 741 mmHg 91%
    07:00 +24°C° 0,1 mm 2 m/s 741 mmHg 86%
    08:00 +25°C° 0,1 mm 2 m/s 741 mmHg 81%
    09:00 +26°C° 0,1 mm 2 m/s 741 mmHg 76%
    10:00 +27°C° 0,5 mm 2 m/s 741 mmHg 72%
    11:00 +28°C° 0,5 mm 3 m/s 741 mmHg 69%
    12:00 +29°C° 0,5 mm 3 m/s 741 mmHg 65%
    13:00 +29°C° 0,7 mm 3 m/s 741 mmHg 66%
    14:00 +29°C° 0,7 mm 3 m/s 741 mmHg 66%
    15:00 +29°C° 0,7 mm 3 m/s 741 mmHg 67%
    16:00 +29°C° 0,1 mm 3 m/s 741 mmHg 69%
    17:00 +29°C° 0,1 mm 3 m/s 741 mmHg 72%
    18:00 +28°C° 0,1 mm 3 m/s 741 mmHg 74%
    19:00 +27°C° 0,1 mm 3 m/s 741 mmHg 79%
    20:00 +25°C° 0,1 mm 3 m/s 741 mmHg 84%
    21:00 +24°C° 0,1 mm 3 m/s 741 mmHg 89%
    22:00 +22°C° 0,1 mm 3 m/s 741 mmHg 90%
    23:00 +22°C° 0,1 mm 3 m/s 741 mmHg 92%

    23 Juillet, Lundi

    Heure Température Précipitation Vent Pression Humidité
    00:00 +21°C° 0,1 mm 3 m/s 741 mmHg 93%
    01:00 +21°C° 0,4 mm 3 m/s 741 mmHg 94%
    02:00 +21°C° 0,4 mm 3 m/s 741 mmHg 95%
    03:00 +21°C° 0,4 mm 3 m/s 741 mmHg 96%
    04:00 +21°C° 0,3 mm 3 m/s 741 mmHg 95%
    05:00 +21°C° 0,3 mm 3 m/s 741 mmHg 95%
    06:00 +21°C° 0,3 mm 3 m/s 741 mmHg 94%
    07:00 +22°C° 0,4 mm 3 m/s 741 mmHg 91%
    08:00 +23°C° 0,4 mm 4 m/s 741 mmHg 87%
    09:00 +26°C° 0,4 mm 4 m/s 741 mmHg 84%
    10:00 +26°C° 1,5 mm 4 m/s 741 mmHg 80%
    11:00 +27°C° 1,5 mm 4 m/s 741 mmHg 77%
    12:00 +28°C° 1,5 mm 4 m/s 741 mmHg 74%
    13:00 +28°C° 1,5 mm 4 m/s 741 mmHg 75%
    14:00 +28°C° 1,5 mm 4 m/s 741 mmHg 76%
    15:00 +27°C° 1,5 mm 4 m/s 741 mmHg 77%
    16:00 +27°C° 0,8 mm 4 m/s 741 mmHg 81%
    17:00 +26°C° 0,8 mm 4 m/s 741 mmHg 84%
    18:00 +25°C° 0,8 mm 3 m/s 741 mmHg 88%
    19:00 +24°C° 0,1 mm 3 m/s 742 mmHg 89%
    20:00 +24°C° 0,1 mm 3 m/s 742 mmHg 91%
    21:00 +22°C° 0,1 mm 3 m/s 742 mmHg 92%
    22:00 +22°C° 0,2 mm 3 m/s 742 mmHg 93%
    23:00 +21°C° 0,2 mm 3 m/s 742 mmHg 95%

    24 Juillet, Mardi

    Heure Température Précipitation Vent Pression Humidité
    00:00 +21°C° 0,2 mm 3 m/s 742 mmHg 96%
    01:00 +20°C° 0,1 mm 3 m/s 742 mmHg 96%
    02:00 +20°C° 0,1 mm 3 m/s 742 mmHg 96%
    03:00 +20°C° 0,1 mm 3 m/s 742 mmHg 97%
    04:00 +20°C° 0 mm 3 m/s 743 mmHg 96%
    05:00 +20°C° 0 mm 3 m/s 743 mmHg 96%
    06:00 +20°C° 0 mm 3 m/s 743 mmHg 95%
    07:00 +21°C° 0,2 mm 3 m/s 743 mmHg 92%
    08:00 +24°C° 0,2 mm 3 m/s 744 mmHg 88%
    09:00 +25°C° 0,2 mm 3 m/s 744 mmHg 85%
    10:00 +26°C° 0,3 mm 3 m/s 744 mmHg 80%
    11:00 +27°C° 0,3 mm 3 m/s 744 mmHg 75%
    12:00 +28°C° 0,3 mm 3 m/s 744 mmHg 70%
    13:00 +28°C° 0,8 mm 4 m/s 744 mmHg 70%
    14:00 +28°C° 0,8 mm 4 m/s 744 mmHg 71%
    15:00 +28°C° 0,8 mm 4 m/s 745 mmHg 71%
    16:00 +28°C° 0,4 mm 4 m/s 745 mmHg 74%
    17:00 +27°C° 0,4 mm 4 m/s 745 mmHg 77%
    18:00 +27°C° 0,4 mm 3 m/s 745 mmHg 80%
    19:00 +26°C° 0,1 mm 3 m/s 745 mmHg 83%
    20:00 +25°C° 0,1 mm 3 m/s 745 mmHg 87%
    21:00 +22°C° 0,1 mm 3 m/s 746 mmHg 90%
    22:00 +22°C° 0 mm 3 m/s 746 mmHg 91%
    23:00 +22°C° 0 mm 3 m/s 746 mmHg 91%
    Voir plus